CCA2535 ZUHY-ZULS

Flight info

Callsign CCA2535
Flight time N/A
Altitude 27600
Route 323053N1022130E DCT KAMAX B213 IGELA W522 IGDAG IGD10A ZULS
Aircraft B738/M-SDE2E3FGHIRWXY/LB1

Departure

Time 2026-05-07 11:33
Airport Hongyuan Airport (ZUHY)

Arrival

Time N/A
Airport Lhasa Gonggar International Airport (ZULS)
Time Latitude Longitude Altitude Speed Heading
2026-05-07 11:11 32.52703 102.35693 11643 ft 0 kts 75°
2026-05-07 11:20 32.52702 102.35683 11642 ft 2 kts 75°
2026-05-07 11:20 32.52697 102.35666 11642 ft 2 kts 75°
2026-05-07 11:21 32.52695 102.35655 11642 ft 2 kts 75°
2026-05-07 11:21 32.52689 102.35641 11642 ft 1 kts 44°
2026-05-07 11:21 32.52678 102.35632 11642 ft 1 kts 24°
2026-05-07 11:21 32.52665 102.35628 11643 ft 1 kts
2026-05-07 11:22 32.52656 102.35629 11643 ft 0 kts 343°
2026-05-07 11:22 32.52649 102.35632 11643 ft 0 kts 341°
2026-05-07 11:24 32.52663 102.35626 11643 ft 3 kts 341°
2026-05-07 11:25 32.52698 102.35613 11642 ft 6 kts 341°
2026-05-07 11:25 32.52745 102.35584 11642 ft 8 kts 308°
2026-05-07 11:25 32.52742 102.35523 11642 ft 8 kts 252°
2026-05-07 11:25 32.52721 102.35452 11642 ft 10 kts 250°
2026-05-07 11:26 32.52740 102.35369 11641 ft 13 kts 335°
2026-05-07 11:26 32.52845 102.35329 11641 ft 18 kts 342°
2026-05-07 11:26 32.52986 102.35278 11640 ft 23 kts 343°
2026-05-07 11:26 32.53164 102.35215 11639 ft 29 kts 341°
2026-05-07 11:27 32.53377 102.35138 11637 ft 34 kts 344°
2026-05-07 11:27 32.53622 102.35051 11636 ft 37 kts 344°
2026-05-07 11:27 32.53860 102.34963 11634 ft 34 kts 343°
2026-05-07 11:27 32.54086 102.34884 11632 ft 32 kts 343°
2026-05-07 11:28 32.54296 102.34808 11631 ft 30 kts 343°
2026-05-07 11:28 32.54489 102.34737 11629 ft 24 kts 343°
2026-05-07 11:28 32.54608 102.34716 11628 ft 9 kts 11°
2026-05-07 11:28 32.54640 102.34718 11628 ft 2 kts 335°
2026-05-07 11:29 32.54647 102.34703 11628 ft 2 kts 276°
2026-05-07 11:29 32.54643 102.34690 11628 ft 1 kts 229°
2026-05-07 11:29 32.54636 102.34686 11628 ft 0 kts 192°
2026-05-07 11:29 32.54631 102.34687 11628 ft 0 kts 167°
2026-05-07 11:30 32.54630 102.34687 11628 ft 0 kts 165°
2026-05-07 11:32 32.54428 102.34759 11629 ft 56 kts 163°
2026-05-07 11:32 32.53876 102.34957 11634 ft 109 kts 161°
2026-05-07 11:32 32.52999 102.35276 11640 ft 155 kts 162°
2026-05-07 11:33 32.51821 102.35696 11684 ft 191 kts 162°
2026-05-07 11:33 32.50557 102.36083 12235 ft 189 kts 163°
2026-05-07 11:33 32.49259 102.36474 12635 ft 200 kts 162°
2026-05-07 11:33 32.47868 102.36903 13028 ft 213 kts 162°
2026-05-07 11:34 32.46399 102.37358 13431 ft 226 kts 162°
2026-05-07 11:34 32.44820 102.37847 13883 ft 238 kts 162°
2026-05-07 11:34 32.43233 102.38339 14590 ft 237 kts 163°
2026-05-07 11:34 32.41606 102.38758 15124 ft 245 kts 176°
2026-05-07 11:35 32.39883 102.38444 15529 ft 260 kts 195°
2026-05-07 11:35 32.38134 102.37734 15944 ft 272 kts 198°
2026-05-07 11:35 32.36300 102.37031 16312 ft 287 kts 195°
2026-05-07 11:35 32.34319 102.36375 16746 ft 301 kts 194°
2026-05-07 11:36 32.32241 102.35743 17165 ft 315 kts 193°
2026-05-07 11:36 32.30063 102.35095 17608 ft 328 kts 193°
2026-05-07 11:36 32.27828 102.34431 17947 ft 343 kts 194°
2026-05-07 11:36 32.25471 102.33723 18282 ft 357 kts 194°
2026-05-07 11:37 32.22998 102.32974 18618 ft 371 kts 194°
2026-05-07 11:37 32.20444 102.32204 18950 ft 385 kts 194°
2026-05-07 11:37 32.17839 102.31422 19473 ft 391 kts 195°
2026-05-07 11:37 32.15210 102.30632 20146 ft 392 kts 195°
2026-05-07 11:38 32.12547 102.29834 20776 ft 394 kts 196°
2026-05-07 11:38 32.09925 102.29050 21381 ft 395 kts 197°
2026-05-07 11:38 32.07213 102.28237 21874 ft 400 kts 197°
2026-05-07 11:38 32.04530 102.27434 22421 ft 401 kts 198°
2026-05-07 11:39 32.01827 102.26624 22936 ft 404 kts 198°
2026-05-07 11:39 31.99109 102.25809 23440 ft 406 kts 198°
2026-05-07 11:39 31.96366 102.24989 24026 ft 407 kts 198°
2026-05-07 11:39 31.93611 102.24166 24431 ft 413 kts 198°
2026-05-07 11:40 31.90813 102.23332 24986 ft 416 kts 198°
2026-05-07 11:40 31.87983 102.22491 25596 ft 417 kts 198°
2026-05-07 11:40 31.85181 102.21658 26011 ft 422 kts 198°
2026-05-07 11:40 31.82312 102.20805 26548 ft 424 kts 199°
2026-05-07 11:41 31.79552 102.19985 26924 ft 429 kts 199°
2026-05-07 11:41 31.76629 102.19120 27504 ft 430 kts 199°
2026-05-07 11:41 31.73698 102.18251 27913 ft 434 kts 199°
2026-05-07 11:41 31.70786 102.17387 28323 ft 438 kts 199°
2026-05-07 11:42 31.67834 102.16514 28828 ft 439 kts 199°
2026-05-07 11:42 31.64867 102.15634 29282 ft 442 kts 199°
2026-05-07 11:42 31.61868 102.14743 29747 ft 444 kts 199°
2026-05-07 11:42 31.58866 102.13852 30100 ft 448 kts 199°
2026-05-07 11:43 31.55829 102.12952 30484 ft 452 kts 199°
2026-05-07 11:43 31.52766 102.12050 31098 ft 449 kts 199°
2026-05-07 11:43 31.49770 102.11171 31797 ft 445 kts 199°
2026-05-07 11:43 31.46790 102.10296 32534 ft 439 kts 199°
2026-05-07 11:44 31.43824 102.09425 33204 ft 435 kts 199°
2026-05-07 11:44 31.40947 102.08582 33856 ft 430 kts 200°
2026-05-07 11:44 31.38035 102.07730 34342 ft 429 kts 200°
2026-05-07 11:44 31.35120 102.06870 34558 ft 434 kts 200°
2026-05-07 11:45 31.32172 102.05999 34904 ft 435 kts 200°
2026-05-07 11:45 31.29261 102.05144 35417 ft 433 kts 201°
2026-05-07 11:45 31.26356 102.04295 35978 ft 429 kts 201°
2026-05-07 11:45 31.23443 102.03444 36462 ft 426 kts 202°
2026-05-07 11:46 31.20548 102.02594 36557 ft 429 kts 202°
2026-05-07 11:46 31.14758 102.00896 36570 ft 425 kts 202°
2026-05-07 11:47 31.08998 101.99210 36570 ft 423 kts 202°
2026-05-07 11:47 31.03298 101.97543 36561 ft 423 kts 202°
2026-05-07 11:48 30.97577 101.95869 36557 ft 425 kts 202°
2026-05-07 11:48 30.91892 101.94006 36544 ft 417 kts 208°
2026-05-07 11:48 30.89319 101.92566 36548 ft 403 kts 219°
2026-05-07 11:49 30.87118 101.90654 36581 ft 396 kts 227°
2026-05-07 11:49 30.83443 101.85906 36570 ft 394 kts 238°
2026-05-07 11:50 30.80921 101.80403 36580 ft 385 kts 254°
2026-05-07 11:50 30.79897 101.74307 36579 ft 385 kts 264°
2026-05-07 11:51 30.79871 101.68095 36577 ft 387 kts 272°
2026-05-07 11:51 30.80459 101.61908 36577 ft 388 kts 275°
2026-05-07 11:52 30.81089 101.55691 36583 ft 389 kts 275°
2026-05-07 11:52 30.81655 101.49451 36613 ft 388 kts 274°
2026-05-07 11:53 30.82182 101.43211 36613 ft 388 kts 274°
2026-05-07 11:53 30.82690 101.36958 36614 ft 390 kts 274°
2026-05-07 11:54 30.83189 101.30695 36605 ft 390 kts 274°
2026-05-07 11:54 30.83685 101.24456 36592 ft 389 kts 273°
2026-05-07 11:55 30.84181 101.18190 36573 ft 389 kts 273°
2026-05-07 11:55 30.84676 101.11880 36584 ft 391 kts 273°
2026-05-07 11:56 30.85165 101.05596 36591 ft 393 kts 273°
2026-05-07 11:56 30.85652 100.99256 36601 ft 393 kts 273°
2026-05-07 11:57 30.86126 100.93111 36606 ft 392 kts 273°
2026-05-07 11:57 30.86598 100.86922 36614 ft 394 kts 273°
2026-05-07 11:58 30.87074 100.80660 36620 ft 390 kts 272°
2026-05-07 11:58 30.87550 100.74331 36619 ft 393 kts 272°
2026-05-07 11:59 30.88018 100.68130 36640 ft 391 kts 273°
2026-05-07 11:59 30.88483 100.61827 36641 ft 392 kts 272°
2026-05-07 12:00 30.88949 100.55531 36652 ft 392 kts 272°
2026-05-07 12:00 30.89414 100.49210 36667 ft 392 kts 272°
2026-05-07 12:01 30.89874 100.42889 36670 ft 393 kts 273°
2026-05-07 12:01 30.90329 100.36603 36693 ft 391 kts 272°
2026-05-07 12:02 30.90782 100.30340 36694 ft 392 kts 272°
2026-05-07 12:02 30.91235 100.24035 36700 ft 391 kts 272°
2026-05-07 12:03 30.91681 100.17776 36719 ft 391 kts 272°
2026-05-07 12:03 30.91828 100.15681 36728 ft 392 kts 272°